Погода в Асахикаве

Япония     43°46′32″N   142°22′01″E
темп.,
°C
ветер,
м/с
пор.,
м/с
влажн.,
%
обл.,
%
осадки,
мм/ч
давл.,
гПа
погр.,
м
9 мая, вс
вс900:00+8ю126581 0.0 100459
03:00+8вюв116077 0.0 100213
06:00+9вюв225599 0.0 1002147
09:00+16ююв2532100 0.0 998975
12:00+17ююз5644100 0.1 9962128
15:00+12юв367292 6.6 997655
18:00+12юз3779100 3.8 996463
21:00+8юз157792 5.3 999623
10 мая, пн
пн1000:00+6ююз128674 0.0 99894
03:00+7зюз1182100 0.1 998197
06:00+7з1385100 0.3 998409
09:00+7зюз2488100 1.0 999844
12:00+4з51195100 0.7 1002747
15:00+5зсз51089100 0.8 10041062
18:00+4зсз51096100 0.1 1006881
21:00+4з5996100 0.4 1009969
11 мая, вт
вт1100:00+4з4896100 0.3 1010868
03:00+4зсз2692100 0.8 1011675
06:00+4с239094 0.4 1013502
09:00+7с2468100 0.4 10141021
12:00+8с3461100 0.0 10151186
15:00+11с35355 0.1 10151830
18:00+8ссв46422 0.0 1017577
21:00+5с24515 0.0 1020241
12 мая, ср
ср1200:00+3св12590 0.0 1021159
03:00+2всв11630 0.0 1022104
06:00+3в11530 0.0 1023222
09:00+10всв11300 0.0 1022607
12:00+15сз11210 0.0 10211332
15:00+16з12255 0.0 10191598
18:00+13зюз234415 0.0 1019546
21:00+8ююз2272100 0.0 1021195
13 мая, чт
чт1300:00+7ююз1277100 0.0 1021191
03:00+6ююз2378100 0.0 1020147
06:00+7юз1372100 0.0 1020167
09:00+9юз1374100 0.2 1019415
12:00+15зюз354985 0.1 10161681
15:00+15з345193 0.3 10151630
18:00+13сз23560 0.0 1016258
21:00+10юз11720 0.0 101728